Puy-St-Vincent, France 16 day weather forecast

Slopes altitude range 1250 m - 2700m

Number of lifts: 12 Pistes: 75km

In some cases the lift and piste totals shown are for the ski domain (e.g. Three Valleys) rather than individual resort (e.g. Courchevel)

Overview

The 16 day weather forecast is fully updated 4 times every day.

    • Sun 17 FEB 2019
    • Sun 17
    • -8C 2C
    • Mon 18 FEB 2019
    • Mon 18
    • -7C 1C
    • Tue 19 FEB 2019
    • Tue 19
    • -10C 0C
    • Wed 20 FEB 2019
    • Wed 20
    • -8C 0C
    • Thu 21 FEB 2019
    • Thu 21
    • -7C 1C
    • Fri 22 FEB 2019
    • Fri 22
    • -5C 3C
    • Sat 23 FEB 2019
    • Sat 23
    • -5C 2C
    • Sun 24 FEB 2019
    • Sun 24
    • -6C 2C
    • Mon 25 FEB 2019
    • Mon 25
    • 1C 9C
    • Tue 26 FEB 2019
    • Tue 26
    • 1C 8C
    • Wed 27 FEB 2019
    • Wed 27
    • 1C 9C
    • Thu 28 FEB 2019
    • Thu 28
    • 2C 11C
    • Fri 01 MAR 2019
    • Fri 01
    • 1C 10C
    • Sat 02 MAR 2019
    • Sat 02
    • 1C 9C
    • Sun 03 MAR 2019
    • Sun 03
    • 0C 7C
    • Mon 04 MAR 2019
    • Mon 04
    • 0C 8C

Date:

Time Type 0°C level Temp Chill Snow Cloud Speed Gust Dir Press
12:00 2871m 2°C 2_5 0cm 2% 5mph 6mph 1027mB
15:00 2669m 2°C 2_5 0cm 0% 5mph 5mph 1025mB
18:00 1427m 2°C 2_5 0cm 0% 5mph 6mph 1026mB
21:00 1275m -6°C -6_5 0cm 0% 5mph 6mph 1027mB
0:00 1248m -7°C -7_6 0cm 0% 6mph 7mph 1027mB
3:00 1215m -7°C -7_5 0cm 0% 5mph 6mph 1026mB
6:00 1190m -7°C -7_6 0cm 0% 6mph 7mph 1026mB
9:00 2135m -7°C -7_6 0cm 0% 6mph 7mph 1025mB
12:00 2348m 1°C 1_6 0cm 1% 6mph 8mph 1024mB
15:00 2285m 1°C 1_5 0cm 63% 5mph 6mph 1022mB
18:00 1204m 1°C 1_4 0cm 63% 4mph 5mph 1024mB
21:00 914m -9°C -9_3 0cm 60% 3mph 4mph 1025mB
0:00 795m -9°C -9_2 0cm 63% 2mph 3mph 1025mB
3:00 729m -10°C -10_2 0cm 67% 2mph 3mph 1024mB
6:00 704m -10°C -10_2 0cm 61% 2mph 3mph 1024mB
9:00 1761m -10°C -10_1 0cm 63% 1mph 1mph 1024mB
12:00 2188m 0°C 0_3 0cm 65% 3mph 3mph 1023mB
15:00 2160m 0°C 0_3 0cm 64% 3mph 3mph 1021mB
18:00 1119m 0°C 0_2 0cm 59% 2mph 2mph 1023mB
21:00 984m -8°C -8_1 0cm 0% 1mph 2mph 1025mB
0:00 936m -9°C -9_0 0cm 0% 0mph 1mph 1025mB
3:00 957m -9°C -9_1 0cm 2% 1mph 2mph 1025mB
6:00 966m -9°C -9_2 0cm 23% 2mph 2mph 1025mB
9:00 1917m -8°C -8_1 0cm 64% 1mph 1mph 1026mB
12:00 2253m 0°C 0_3 0cm 65% 3mph 3mph 1025mB
15:00 2229m 0°C 0_5 0cm 48% 5mph 5mph 1024mB
18:00 1351m 0°C 0_4 0cm 25% 4mph 5mph 1026mB
21:00 1221m -7°C -7_3 0cm 22% 3mph 4mph 1028mB
0:00 1169m -7°C -7_2 0cm 33% 2mph 2mph 1028mB
3:00 1140m -7°C -7_2 0cm 63% 2mph 2mph 1028mB
6:00 1121m -7°C -7_2 0cm 63% 2mph 2mph 1029mB
9:00 2122m -7°C -7_2 0cm 69% 2mph 2mph 1029mB
12:00 2382m 1°C 1_2 0cm 64% 2mph 2mph 1028mB
15:00 2362m 1°C 1_4 0cm 64% 4mph 5mph 1027mB
18:00 1608m 1°C 1_5 0cm 66% 5mph 6mph 1029mB
21:00 1577m -4°C -4_5 0cm 66% 5mph 6mph 1030mB
0:00 1569m -5°C -5_7 0cm 60% 7mph 8mph 1030mB
3:00 1539m -5°C -5_7 0cm 3% 7mph 9mph 1029mB
6:00 1485m -5°C -5_9 0cm 3% 9mph 10mph 1029mB
9:00 2553m -5°C -5_6 0cm 7% 6mph 7mph 1027mB
12:00 2834m 3°C 3_4 0cm 4% 4mph 4mph 1026mB
15:00 2733m 3°C 3_5 0cm 0% 5mph 6mph 1025mB
18:00 1771m 3°C 3_4 0cm 0% 4mph 5mph 1026mB
21:00 1740m -4°C -4_8 0cm 0% 8mph 9mph 1029mB
0:00 1574m -4°C -4_7 0cm 0% 7mph 8mph 1030mB
3:00 1487m -5°C -5_5 0cm 0% 5mph 6mph 1031mB
6:00 1428m -5°C -5_2 0cm 0% 2mph 3mph 1032mB
9:00 2227m -5°C -5_2 0cm 0% 2mph 2mph 1033mB
12:00 2401m 2°C 2_2 0cm 0% 2mph 2mph 1032mB
15:00 2429m 2°C 2_2 0cm 2% 2mph 2mph 1031mB
18:00 1781m 2°C 2_4 0cm 1% 4mph 4mph 1033mB
21:00 1657m -4°C -4_6 0cm 2% 6mph 7mph 1035mB
0:00 1593m -4°C -4_6 0cm 5% 6mph 7mph 1037mB
3:00 1506m -5°C -5_6 0cm 10% 6mph 7mph 1037mB
6:00 1404m -6°C -6_5 0cm 7% 5mph 7mph 1038mB
9:00 2085m -6°C -6_6 0cm 1% 6mph 8mph 1038mB
12:00 2746m 2°C 2_5 0cm 0% 5mph 6mph 1037mB
15:00 2684m 3°C 3_3 0cm 0% 3mph 4mph 1035mB
18:00 1920m 3°C 3_2 0cm 0% 2mph 2mph 1036mB
21:00 3119m 1°C 1_3 0cm 0% 3mph 4mph 1036mB
0:00 3158m 1°C 1_4 0cm 1% 4mph 4mph 1036mB
3:00 3213m 1°C 1_4 0cm 1% 4mph 5mph 1035mB
6:00 3278m 1°C 1_4 0cm 1% 4mph 5mph 1035mB
9:00 3461m 1°C 1_0 0cm 0% 0mph 1mph 1034mB
12:00 3467m 9°C 9_3 0cm 0% 3mph 3mph 1032mB
15:00 3490m 10°C 10_2 0cm 0% 2mph 2mph 1030mB
18:00 3572m 10°C 10_4 0cm 0% 4mph 5mph 1030mB
21:00 3559m 3°C 3_5 0cm 0% 5mph 6mph 1030mB
0:00 3540m 3°C 3_5 0cm 0% 5mph 6mph 1028mB
3:00 3299m 2°C 2_4 0cm 0% 4mph 5mph 1027mB
6:00 3092m 1°C 1_1 0cm 14% 1mph 2mph 1027mB
9:00 3054m 1°C 1_4 0cm 0% 4mph 5mph 1027mB
12:00 2984m 8°C 8_5 0cm 0% 5mph 5mph 1026mB
15:00 2989m 8°C 8_4 0cm 0% 4mph 4mph 1025mB
18:00 2844m 8°C 8_1 0cm 0% 1mph 2mph 1027mB
21:00 2895m 2°C 2_3 0cm 0% 3mph 3mph 1028mB
0:00 2878m 1°C 1_2 0cm 0% 2mph 3mph 1029mB
3:00 2772m 1°C 1_1 0cm 0% 1mph 1mph 1030mB
6:00 2404m 0°C 0_1 0cm 0% 1mph 1mph 1031mB
Afternoon 0mm 0 2752m 9°C 9_2 0cm 0% 2mph 3mph 1033mB
Morning 0mm 0 2959m 2°C 2_5 0cm 0% 5mph 6mph 1033mB
Afternoon 0mm 0 3136m 11°C 11_2 0cm 2% 2mph 3mph 1030mB
Morning 0mm 0 2986m 2°C 2_1 0cm 0% 1mph 1mph 1030mB
Afternoon 0mm 0 2795m 10°C 10_1 0cm 0% 1mph 2mph 1028mB
Morning 0mm 0 2233m 1°C 1_4 0cm 0% 4mph 5mph 1031mB
Afternoon 0mm 0 2441m 9°C 9_2 0cm 1% 2mph 3mph 1032mB
Morning 0mm 0 2011m 0°C 0_2 0cm 2% 2mph 3mph 1036mB
Afternoon 0.00520833mm 0 2272m 7°C 7_3 0cm 60% 3mph 3mph 1034mB
Morning 0mm 0 1965m 0°C 0_2 0cm 21% 2mph 3mph 1033mB
Afternoon 0mm 0 2207m 8°C 8_2 0cm 0% 2mph 3mph 1028mB
Morning 0mm 0 1934m 0°C 0_7 0cm 9% 7mph 10mph 1027mB

16 day outlook at a glance

Forecast issued: 2/17/2019 1:33:39 PM

Chat

Your comments and questions. In a resort? Let us know what it's like!


Characters left 250

For terms and conditions see Readers Comments on the Cookie and privacy policy page.